Content
SEND FEEDBACK

Daily
Averages
Monthly
Summary
United States of America

DEDEDO, GUAM


Home > North America > United States > Guam
Elevation: 111 meters     Latitude: 13 33N     Longitude: 144 49E

WEATHER
 
SELECT A DAY
Number of Records: 215,673;   Date Range: 1/1/95 - 12/23/14
 
SHARE

PRINT THIS DATA

[ ← Previous Day ]
WEATHER ALMANAC - 23 JULY, 2013
[ Next Day → ]
[ °F ]   °C
Weather ElementAverageHighLow
Temperature29.3 °C32.2 °C (1:54 pm)26 °C (5:26 am)
Dewpoint24.4 °C25.6 °C (8:54 am)23.9 °C (3:54 pm)
Humidity75.4 %89 % (5:26 am)61 % (3:54 pm)
Barometer1011.9 hPa1012.5 hPa (8:54 pm)1010.2 hPa (3:54 pm)
Wind Speed9.3 km/h16.7 km/h (3:54 pm)
Weather ElementAverage
Visibility15.1 km
Wind DirectionESE (100.7 °)

Weather ElementTotal
Precipitation18.03 mm
Cooling Degree Days10.8 (Base 18.3)
Growing Degree Days19.1 (Base 10)
Averaged from 29 records on 23 July, 2013
WEATHER CONDITIONS BREAKOUT
WIND DIRECTION BREAKOUT
WEATHER BY HOUR - 23 JULY, 2013
[ °F ]   °C
Local TimeTemperatureDewpointHumidityBarometerVisibilityWind DirectionWind SpeedGust SpeedPrecipitationEventsConditions
1:54 AM27.2 °C25 °C88 %1011.5 hPa16.1 kmNE (50°)9.3 km/h0 mmClear
2:54 AM27.8 °C25 °C85 %1011.2 hPa12.9 kmSE (140°)7.4 km/h0 mmRainLight Rain
3:22 AM27 °C24 °C84 %1012.2 hPa2.9 kmEast (100°)5.6 km/h3.56 mmRainHeavy Rain
3:30 AM27 °C24 °C84 %1011.9 hPa4.8 kmNorth (350°)11.1 km/h5.33 mmRainRain
3:54 AM26.7 °C24.4 °C87 %1011.2 hPa16.1 kmSouth (180°)5.6 km/h5.59 mmOvercast
4:35 AM27 °C24 °C84 %1012.2 hPa16.1 kmCalm1.27 mmMostly Cloudy
4:54 AM26.7 °C24.4 °C87 %1011.5 hPa16.1 kmNorth (350°)5.6 km/h1.52 mmRainLight Rain
5:26 AM26 °C24 °C89 %1011.9 hPa16.1 kmNNE (20°)7.4 km/h0.76 mmMostly Cloudy
5:54 AM26.7 °C24.4 °C87 %1011.5 hPa16.1 kmNE (50°)13 km/hPartly Cloudy
6:54 AM27.2 °C24.4 °C85 %1011.9 hPa16.1 kmCalmClear
7:54 AM28.3 °C25 °C82 %1012.2 hPa16.1 kmCalmClear
8:54 AM28.9 °C25.6 °C82 %1012.2 hPa16.1 kmEast (90°)5.6 km/hClear
9:54 AM30 °C25.6 °C77 %1011.9 hPa16.1 kmEast (80°)14.8 km/hClear
10:54 AM30 °C25 °C74 %1012.2 hPa16.1 kmEast (100°)14.8 km/hPartly Cloudy
11:54 AM31.7 °C25 °C67 %1011.9 hPa16.1 kmEast (100°)13 km/hPartly Cloudy
12:54 PM31.7 °C24.4 °C65 %1011.5 hPa16.1 kmESE (120°)13 km/hScattered Clouds
12:59 PM32 °C24 °C62 %1012.2 hPa16.1 kmESE (110°)14.8 km/hMostly Cloudy
1:08 PM32 °C24 °C62 %1012.2 hPa16.1 kmSE (130°)11.1 km/hMostly Cloudy
1:54 PM32.2 °C24.4 °C63 %1011.2 hPa16.1 kmSE (130°)11.1 km/hScattered Clouds
2:54 PM31.7 °C24.4 °C65 %1010.5 hPa16.1 kmESE (110°)14.8 km/hScattered Clouds
3:54 PM32.2 °C23.9 °C61 %1010.2 hPa16.1 kmEast (90°)16.7 km/hScattered Clouds
4:54 PM31.7 °C23.9 °C63 %1010.5 hPa16.1 kmEast (80°)14.8 km/hPartly Cloudy
5:54 PM31.1 °C24.4 °C67 %1011.2 hPa16.1 kmEast (80°)13 km/hClear
6:54 PM30 °C24.4 °C72 %1011.5 hPa16.1 kmEast (80°)7.4 km/hPartly Cloudy
7:54 PM30 °C23.9 °C70 %1012.2 hPa16.1 kmENE (70°)7.4 km/hClear
8:54 PM30 °C24.4 °C72 %1012.5 hPa16.1 kmENE (70°)7.4 km/hPartly Cloudy
9:54 PM29.4 °C24.4 °C74 %1012.5 hPa16.1 kmEast (90°)5.6 km/hPartly Cloudy
10:54 PM29.4 °C24.4 °C74 %1012.5 hPa16.1 kmENE (60°)9.3 km/hClear
11:54 PM29.4 °C24.4 °C74 %1012.2 hPa16.1 kmEast (90°)9.3 km/hScattered Clouds
Hourly data recorded from PGUM, located 0 kilometers away from Dededo, Guam







STORIES FROM OUR PARTNERS